This is the latest recevied weather packets stored in our database for station/object AD8AK. If no packets are shown the sender has not sent any weather packets the latest 1 day(s).
| Time | Temp. | Humidity | Pressure | Rain* | Wind** | Luminosity | Snow |
|---|---|---|---|---|---|---|---|
| 1777997631 | 15.56° C | 74% | 1008.1 hPa | 0 mm | 0.89 m/s, 280° | - | - |
| 1777997328 | 15.56° C | 74% | 1008.1 hPa | 0 mm | 1.34 m/s, 326° | - | - |
| 1777997027 | 15.56° C | 74% | 1008.2 hPa | 0 mm | 1.79 m/s, 299° | - | - |
| 1777996723 | 15.56° C | 75% | 1008.2 hPa | 0 mm | 0.89 m/s, 289° | - | - |
| 1777996418 | 15.56° C | 75% | 1007.7 hPa | 0 mm | 0.89 m/s, 274° | - | - |
| 1777996115 | 15.56° C | 76% | 1008.1 hPa | 0 mm | 0.89 m/s, 339° | - | - |
| 1777995812 | 15.56° C | 75% | 1008 hPa | 0 mm | 1.34 m/s, 350° | - | - |
| 1777995509 | 15.56° C | 75% | 1007.9 hPa | 0 mm | 1.79 m/s, 279° | - | - |
| 1777995206 | 15.56° C | 74% | 1008 hPa | 0 mm | 1.79 m/s, 266° | - | - |
| 1777994903 | 16.11° C | 75% | 1008 hPa | 0 mm | 1.34 m/s, 316° | - | - |
| 1777994600 | 16.11° C | 75% | 1008 hPa | 0 mm | 0.89 m/s, 325° | - | - |
| 1777994299 | 16.11° C | 75% | 1008 hPa | 0 mm | 1.34 m/s, 237° | - | - |
| 1777993996 | 16.11° C | 75% | 1007.9 hPa | 0 mm | 1.79 m/s, 340° | - | - |
| 1777993694 | 16.11° C | 74% | 1007.7 hPa | 0 mm | 3.13 m/s, 285° | - | - |
| 1777993391 | 16.11° C | 74% | 1007.7 hPa | 0 mm | 1.79 m/s, 265° | - | - |
| 1777993090 | 16.67° C | 73% | 1007.8 hPa | 0 mm | 2.24 m/s, 255° | - | - |
| 1777992790 | 16.67° C | 73% | 1007.4 hPa | 0 mm | 1.79 m/s, 275° | - | - |
| 1777992486 | 16.67° C | 73% | 1007.4 hPa | 0 mm | 2.24 m/s, 248° | - | - |
| 1777992185 | 16.67° C | 73% | 1007.5 hPa | 0 mm | 1.34 m/s, 276° | - | - |
| 1777991881 | 16.67° C | 72% | 1007.2 hPa | 0 mm | 1.79 m/s, 256° | - | - |
| 1777991579 | 16.67° C | 71% | 1007.1 hPa | 0 mm | 1.34 m/s, 276° | - | - |
| 1777991276 | 17.22° C | 71% | 1006.8 hPa | 0 mm | 0.89 m/s, 250° | - | - |
| 1777990973 | 17.22° C | 70% | 1006.7 hPa | 0 mm | 1.34 m/s, 267° | - | - |
| 1777990671 | 17.22° C | 70% | 1006.6 hPa | 0 mm | 2.68 m/s, 288° | - | - |
| 1777990368 | 17.78° C | 69% | 1006.2 hPa | 0 mm | 2.68 m/s, 241° | - | - |
* Rain latest hour (hover to see other rain measurements)
** Current wind speed in m/s (hover to see current wind gust speed)